Showing default

VRSS-2, 42954

Orbit data source: Space-Track

VRSS-2, 42954 is a payload satellite owned by ABAE (VE) in SSO that was launched on Mon, 09 Oct 2017 UTC via a CHANG ZHENG 2D launch vehicle from the Jiuquan Satellite Launch Center, China (JSC). Payloads include a variety of satellites, spacecraft, and rockets equipped with specific instruments for various scientific and technological missions. These include communications satellites like Starlink; space stations such as the ISS; scientific satellites like the Hubble; Earth observation satellites from companies like Planet Labs, Umbra, and HawkEye 360; GPS; miniature CubeSats for education and research; and military/defense satellites.

Loading next visibility...
VRSS-2 details
Identifier
42954, 2017-060A
Orbit
SSO
Last TLE update9 hours ago
Origin
Flag of VEABAE (VE / VENZ)
ManufacturerDFH
MissionOperational Civil Imaging
Bus & MotorCAST-2000, AOCS
Mass942 kg wet, ~900 kg dry
Launch date (UTC)
2017-10-09 (7 years ago)
Launch vehicle
CHANG ZHENG 2D
Launch site
Jiuquan Satellite Launch Center, China (JSC)
Object type
Payload
Rocket body
Debris
Shape & HBRBox + 2 Pan, 7.9 m
Radar Cross Section8.358 m², Large (>1 m²)

Expand to show TLE details & history

TLE from 9 hours ago
0 VRSS-2
1 42954U 17060A   24348.76823656  .00001865  00000-0  25508-3 0  9995
2 42954  97.7305  38.3006 0019077  96.6422 263.6962 14.79549422387010
Epoch: 2024-12-13T18:26Z
Definitive object data (Epoch: 2024-12-13T18:26:15.638Z)
Latitude-0.00007°
Longitude38.80597°
Altitude635.266 km
Speed7.54 km/s
True Right ascension02h 33m 12s
True Declination0° 00' 00"
Sunlit
Object was in full shadow at TLE epoch
Visualization TLE readout
Latitude-75.13767°
Longitude-171.40443°
Altitude670.738 km
Speed7.514 km/s
Apparent Right ascension13h 47m 53s
Apparent Declination-58° 47' 49"
Sunlit
Object is in daylight
Visualization observer readout
Local Sidereal Time02:15:24
Azimuth169.222° S
Elevation-70.619°
Doppler factor1
Orbital elements
Apogee altitude641.146 km
Perigee altitude614.415 km
Semi-major axis7,005.918 km
Eccentricity0.0019077
Inclination97.7305°
RAAN38.3006°
Arg. of periapsis96.6422°
True anomaly263.47897°
Mean anomaly263.6962°
Eccentric anomaly263.58758°
Mean motion3.70123 °/min
BSTAR0.00025508
Orbital period97.27 mins
Loading maneuver chart data...
Loading historical data...
Loading historical data...
Loading historical data...
Loading historical data...
Loading historical data...
Loading historical data...
Loading historical data...
Other satellites on launch #60 in the year 2017 (2017-10-09 UTC)

VRSS-2 Visibility forecast

Observer location: undefined°, undefined

Span
Click to sort rows by Start time (UTC) header in descending order
Start Az.
Max El. time (UTC)
Max El. Az.
Max El.
End time (UTC)
End Az.
7 mins2024-12-14 04:17:38.607Z207.124° SW2024-12-14 04:20:38.607Z253.618° W24.413°2024-12-14 04:24:38.607Z322.363° NNW
6 mins2024-12-14 16:07:38.607Z29.706° NE2024-12-14 16:09:38.607Z72.744° E38.468°2024-12-14 16:13:38.607Z176.601° S
6 mins2024-12-15 03:02:38.607Z131.994° SE2024-12-15 03:05:38.607Z58.662° ENE32.324°2024-12-15 03:08:38.607Z6.632° NNE
|